Regional Weather Roundup
Issued by NWS State College, PA

Home | Current Version | Previous Version | Text Only | Print | Product List | Glossary On
Versions: 1 2 3 4 5 6 7 8 9 10 11 12 13 14 15 16 17 18 19 20 21 22 23 24 25 26 27 28 29 30 31 32 33 34 35 36 37 38 39 40 41 42 43 44 45 46 47 48 49 50
000
ASUS41 KCTP 021510
RWRCTP

REGIONAL WEATHER ROUNDUP
NATIONAL WEATHER SERVICE STATE COLLEGE PA
1000 AM EST MON MAR 02 2015

Note: "fair" indicates few or no clouds below 12,000 feet with no
significant weather and/or obstructions to visibility.

* = STATION THAT DOES NOT REPORT PRECIPITATION /E.G. RAIN...SNOW...ETC/
    THUNDER OR FOG.

PAZ002>004-007>009-013>016-020>023-029>032-021600-
WESTERN PENNSYLVANIA

CITY           SKY/WX    TMP DP  RH WIND       PRES   REMARKS
ERIE           SUNNY     23  14  68 W15G24    30.38R WCI  10
MEADVILLE        N/A     21  11  65 W13G21    30.33R WCI   9
FRANKLIN*      CLOUDY    19  10  68 NW13G22   30.34R WCI   7
NEW CASTLE     FLURRIES  23  16  75 W7        30.41R WCI  15
BEAVER COUNTY  FLURRIES  23  18  80 W12G17    30.38R WCI  12
BUTLER*        CLOUDY    23  16  74 W10G17    30.38S WCI  12
PITTSBURGH INT FLURRIES  23  16  74 W13G24    30.39R WCI  11
PITTSBURGH     CLOUDY    24  13  62 W14G20    30.38R WCI  12
INDIANA*       CLOUDY    23  18  80 W12G20    30.37S HAZE    WCI  12
LATROBE        MOSUNNY   27  16  63 W10       30.39F
WASHINGTON CO* CLOUDY    25  16  68 W7        30.42S
$$

PAZ004>006-010>012-017>019-024>028-033>037-041-042-045-046-049>053-021600-
CENTRAL PENNSYLVANIA

CITY           SKY/WX    TMP DP  RH WIND       PRES   REMARKS
BRADFORD       LGT SNOW  19  12  74 W15G24    30.20R VSB 1   WCI   5
DUBOIS         LGT SNOW  20  15  81 W17G25    30.26R VSB 3/4 WCI   5
CLEARFIELD     LGT SNOW  22  14  71 W10G24    30.27S WCI  11
JOHNSTOWN      CLOUDY    20  12  71 W10G22    30.25R WCI   9
ALTOONA        CLOUDY    25  13  60 W16G26    30.29R WCI  12
STATE COLLEGE  PTSUNNY   25  14  63 W14       30.27R WCI  13
WILLIAMSPORT   PTSUNNY   29  11  47 W20G26    30.25R
SELINSGROVE    MIX PCPN  30  15  53 W16G30    30.27R
FT INDIANTOWN  PTSUNNY   31  16  54 NW13G25   30.24R
CAPITAL CITY   MOSUNNY   33  16  49 NW23G37   30.25R
HARRISBURG     MOSUNNY   33  18  53 NW28G35   30.25R
YORK           SUNNY     34  19  54 NW22G31   30.24R
$$

PAZ038>040-043-044-047-048-054-055-060>062-067>071-021600-
EASTERN PENNSYLVANIA

CITY           SKY/WX    TMP DP  RH WIND       PRES   REMARKS
SCRANTON       MIX PCPN  27  12  53 W12G23    30.17R
MOUNT POCONO   LGT SNOW  23  15  71 NW24G32   30.07R VSB 1   WCI   7
ALLENTOWN      PTSUNNY   34  19  54 NW22G36   30.18R
QUAKERTOWN*    CLOUDY    32  23  69 NW10G22   30.18R
READING        LGT RAIN  33  19  56 NW25G37   30.21R
LANCASTER      PTSUNNY   33  20  58 NW18G33   30.22R
COATESVILLE    MOSUNNY   36  28  75 NW20G25   30.20R
POTTSTOWN      CLOUDY    33  29  85 NW10G18   30.20R
BLUE BELL      PTSUNNY   36  32  87 NW6       30.18R
DOYLESTOWN     PTSUNNY   33  26  75 W14G23    30.16R
WILLOW GROVE   NOT AVBL
NORTH PHILA    PTSUNNY   37  28  70 W12       30.21R
PHILADELPHIA   PTSUNNY   37  29  72 NW16      30.21R
$$



USA.gov is the U.S. government's official web portal to all federal, state and local government web resources and services.